Temperature
22 21 21 22 27 30 30 30 30 30 30 29 28 28 29 28 28 26 22 21 21 20 20 20 20 20 20 19 19 19 19 19 19 19 19 19 19 19 19 19 19 19 19 19 19 19 18 18 18
21 21 22 26 29 30 30 30 30 30 29 27 27 27 28 27 24 22 21 20 20 20 20 20 20 20 20 19 19 19 19 19 19 19 19 19 19 19 19 19 19 18 18 18 18 18 18 18 18
21 21 25 29 30 30 30 30 29 29 27 27 28 27 27 25 22 22 21 20 20 20 20 20 20 20 20 19 19 19 19 19 19 19 19 19 19 19 19 19 18 18 18 18 18 18 18 18 18
21 23 26 29 29 30 30 30 29 29 28 27 28 27 25 22 22 21 20 20 20 20 19 20 20 20 20 19 19 19 19 19 19 19 19 19 19 19 18 18 18 18 18 18 18 18 18 18 18
22 26 29 29 29 30 30 29 28 29 29 27 27 27 24 21 21 20 20 20 20 20 19 19 20 20 19 19 19 19 19 19 19 19 19 19 19 18 18 18 18 18 18 18 18 18 18 18 18
25 28 29 29 29 29 29 28 28 29 28 27 27 26 24 20 20 20 20 20 20 20 19 19 19 19 19 19 19 19 19 19 19 19 19 18 18 18 18 18 18 18 18 18 18 17 17 17 17
27 29 29 30 29 29 29 28 28 29 28 27 26 26 23 20 20 20 20 20 20 19 19 18 19 19 19 19 19 19 19 19 18 18 18 18 18 18 18 18 18 18 18 18 17 17 17 17 17
26 29 29 29 29 29 28 27 27 27 27 25 25 26 24 20 20 20 19 19 19 19 19 18 18 18 18 18 18 18 18 18 18 18 18 18 18 18 18 17 17 17 17 17 17 17 17 17 17
25 29 29 29 29 29 28 28 27 25 25 24 24 24 22 20 20 19 19 19 19 19 18 18 18 18 18 18 18 18 18 18 18 18 18 18 17 17 17 17 17 17 17 17 17 17 17 17 17
27 29 29 29 29 29 28 27 27 26 26 25 23 22 20 20 20 19 19 19 19 19 18 18 18 18 18 18 17 17 17 18 17 17 17 17 17 17 17 16 17 17 17 17 17 17 17 16 16
28 28 28 28 27 27 27 27 26 27 27 26 24 22 20 20 20 20 19 19 19 19 18 18 18 18 18 17 17 17 17 17 17 17 17 17 17 16 16 16 16 16 16 16 16 16 16 16 16
27 27 27 27 26 27 27 27 26 26 26 24 23 22 21 20 20 20 20 19 19 19 18 18 18 18 18 18 17 17 17 17 17 17 17 17 16 16 16 16 16 16 16 16 16 16 16 16 16
27 27 26 26 26 26 26 26 26 25 24 23 22 21 21 20 20 20 19 19 18 18 18 18 18 18 18 18 17 17 17 17 17 17 17 17 16 16 16 16 16 16 16 16 16 15 15 16 15
27 27 27 26 26 26 26 26 25 24 23 23 22 21 21 20 20 19 19 18 18 18 18 18 18 18 18 18 18 17 17 17 16 16 16 16 16 16 16 16 16 15 15 15 15 15 15 15 15
26 27 28 27 27 26 26 26 26 24 23 23 22 21 21 20 20 19 19 18 18 18 18 18 18 18 18 17 17 17 17 17 16 16 16 16 16 16 16 15 15 15 15 15 15 15 15 15 15
28 28 28 28 27 26 27 26 26 23 23 23 22 21 20 20 19 19 18 18 18 18 18 18 18 17 17 17 17 17 16 16 16 16 16 16 16 15 15 15 15 15 15 15 15 14 14 14 14
28 28 28 27 27 27 27 26 26 24 23 23 22 21 21 20 19 19 18 18 17 17 18 18 17 17 17 17 17 16 16 16 16 16 15 15 15 15 15 15 15 15 14 14 14 14 14 14 14
27 28 27 27 27 27 26 26 26 24 23 23 22 21 21 20 19 18 18 17 17 17 17 17 17 17 17 16 16 16 16 16 15 15 15 15 15 15 15 14 14 14 14 14 14 14 14 14 14
27 27 27 27 27 26 26 26 25 24 23 23 22 21 20 20 19 18 17 17 17 17 17 17 17 17 17 16 16 16 15 15 15 15 15 14 14 14 14 14 14 14 14 14 13 13 13 13 13
27 27 26 26 26 26 26 25 26 25 24 23 22 21 20 20 19 18 17 17 17 17 17 17 17 16 16 16 15 15 15 15 15 14 14 14 14 14 14 14 13 13 13 13 13 13 13 13 13
27 27 26 26 26 26 25 25 25 25 24 23 22 21 21 20 19 18 17 17 16 16 16 16 16 16 16 15 15 14 14 14 14 14 14 14 14 13 13 13 13 13 13 13 13 13 13 13 13
26 27 26 26 25 26 25 25 25 25 24 24 22 21 21 20 19 18 17 17 16 16 16 16 16 16 15 15 15 14 14 14 14 13 13 13 13 13 13 13 13 12 12 12 12 12 12 12 12
26 26 26 26 26 25 26 25 26 25 24 24 23 21 20 19 19 18 17 17 16 16 15 15 15 15 15 14 14 14 14 14 13 13 13 13 13 13 12 12 12 12 12 12 12 12 12 12 12
26 26 26 26 26 25 25 25 25 25 24 24 23 21 20 19 18 18 17 16 16 15 15 15 14 14 14 14 14 14 13 13 13 13 13 12 12 12 12 12 12 12 12 12 12 12 12 11 11
26 25 25 25 25 25 25 25 25 24 24 23 22 21 20 19 18 17 17 16 15 15 15 15 14 14 14 13 13 13 13 13 12 12 12 12 12 12 12 12 11 11 11 11 11 11 11 11 11
25 25 24 23 24 24 25 25 25 24 23 22 21 20 19 19 18 17 16 16 15 15 14 14 14 14 13 13 13 13 13 12 12 12 12 12 12 11 11 11 11 11 11 11 11 11 11 11 11
25 25 25 24 24 24 24 25 24 22 22 22 21 20 19 18 17 17 16 15 15 14 14 14 13 13 13 13 13 12 12 12 12 12 12 11 11 11 11 11 11 11 11 11 11 11 11 11 11
25 25 24 24 22 22 23 24 24 23 22 22 21 20 19 18 17 16 16 15 15 14 13 13 13 13 13 13 12 12 12 12 12 11 11 11 11 11 11 11 10 10 11 10 10 10 10 10 10
24 24 24 24 24 22 22 23 24 23 22 22 21 20 18 17 17 16 15 15 14 14 13 13 13 13 12 12 12 12 12 12 11 11 11 11 11 11 10 10 10 10 10 10 10 10 10 10 10
24 23 23 22 22 23 23 23 23 22 22 21 20 19 18 17 16 15 15 15 14 14 13 13 13 12 12 12 12 12 11 11 11 11 11 11 10 10 10 10 10 10 10 10 10 10 10 10 10
Wind_Speed
9 7 6 5 6 5 3 2 0 1 2 3 2 2 1 2 2 3 5 13 15 18 20 20 17 16 15 14 13 13 14 15 15 15 15 14 14 13 12 11 10 9 8 8 7 6 5 5 4
7 6 6 5 6 6 4 2 1 1 2 2 4 3 2 3 4 5 9 14 17 18 19 19 19 16 15 14 13 13 14 14 14 14 14 13 13 12 11 10 10 9 8 7 7 6 5 5 5
7 6 5 5 5 4 2 3 3 3 3 3 3 2 1 3 4 5 10 16 17 17 18 18 19 16 15 14 13 13 13 13 13 13 13 12 12 11 10 10 9 8 7 7 6 6 6 5 5
6 6 5 7 6 2 1 1 1 3 4 3 3 4 3 4 2 7 14 16 17 16 17 19 18 17 15 14 14 13 13 12 12 12 12 11 11 10 10 9 9 8 7 7 6 6 6 6 5
6 6 7 7 5 2 1 1 2 3 2 3 2 3 4 4 6 11 15 15 15 14 15 19 18 16 15 14 14 13 12 12 12 11 11 10 10 10 9 9 8 8 8 7 6 6 6 6 6
6 6 8 7 5 3 2 2 4 4 3 3 3 2 4 6 8 12 14 13 13 13 13 17 17 16 15 14 13 13 12 11 11 10 10 9 9 8 8 8 8 8 8 8 7 7 7 7 7
7 6 6 5 4 4 2 1 3 3 3 2 2 2 5 8 9 11 12 12 12 12 12 14 16 15 15 14 13 12 11 11 10 9 9 8 8 8 8 8 8 8 8 8 8 8 9 8 8
5 5 6 5 4 3 3 2 1 2 1 1 1 2 4 10 11 11 11 11 11 10 10 11 13 13 13 13 13 12 11 10 9 9 8 8 9 9 9 10 9 8 8 8 8 8 9 9 9
5 6 5 3 3 2 3 2 2 1 2 2 1 1 6 13 13 12 11 10 9 9 9 9 10 10 11 11 12 12 11 10 9 9 9 10 10 10 10 8 6 7 8 8 8 8 9 10 11
5 5 1 1 1 0 1 1 2 3 4 3 4 5 10 14 14 13 12 11 11 10 9 8 8 9 9 8 9 9 10 10 10 8 9 9 7 6 6 4 6 7 8 9 9 9 10 11 9
3 2 1 1 1 1 1 0 2 4 3 2 4 7 11 13 12 12 11 10 10 9 8 7 6 6 6 5 6 6 6 6 8 7 7 6 6 5 6 5 7 8 10 9 8 10 9 8 7
3 1 2 1 2 2 2 1 1 2 1 2 3 7 11 11 11 11 10 9 9 8 8 7 7 6 6 5 5 5 5 5 5 6 6 5 4 4 5 5 4 5 5 5 6 6 7 7 7
4 1 0 1 1 1 2 2 2 1 1 2 4 7 9 10 10 9 8 8 8 7 7 6 5 5 5 5 4 4 4 4 5 5 5 6 4 5 5 4 4 5 4 4 4 6 6 6 7
2 2 2 2 1 2 2 1 2 1 1 4 6 6 8 9 9 8 8 7 7 6 5 5 5 5 5 5 5 4 4 4 5 4 4 5 4 4 4 4 4 4 4 4 5 6 6 6 6
3 4 3 2 2 2 2 3 2 1 2 4 5 5 6 7 7 7 7 6 6 5 5 4 5 4 5 5 4 4 4 4 3 3 3 4 4 4 4 4 4 3 4 4 5 6 6 6 7
6 6 4 3 2 2 5 4 2 2 2 4 4 5 5 5 6 6 5 5 5 5 4 4 3 4 4 3 4 3 3 3 3 3 3 4 4 4 4 4 3 3 4 4 4 5 5 6 6
6 5 3 2 2 2 5 4 1 1 2 3 4 5 5 5 5 5 5 5 5 4 4 3 3 3 3 3 3 3 2 3 3 3 2 3 4 4 4 3 2 4 3 4 5 4 5 6 6
3 4 4 3 1 4 5 5 3 2 3 4 4 4 4 4 4 4 4 4 4 4 3 3 3 3 3 3 3 2 2 2 2 2 2 3 3 3 3 3 3 4 3 3 4 5 5 5 5
4 5 5 3 2 4 5 6 5 3 4 4 3 3 3 3 3 3 4 4 4 4 3 3 3 3 2 2 3 3 2 2 1 1 1 2 3 3 3 3 3 3 3 4 5 5 6 5 4
5 6 4 3 2 5 6 7 5 4 4 4 3 4 3 3 3 3 4 5 4 4 4 4 4 3 3 2 2 2 1 1 1 1 1 1 2 2 2 3 3 3 3 4 4 5 5 5 4
6 6 6 5 5 7 7 8 5 4 4 3 3 3 3 3 3 4 4 5 5 5 5 4 3 3 2 2 2 1 1 1 1 0 0 1 1 1 2 2 2 3 4 3 4 5 5 5 4
6 4 5 7 9 7 7 9 4 4 4 4 4 4 3 3 3 4 5 5 5 5 4 4 4 3 3 3 2 2 2 2 1 1 0 0 1 1 1 2 3 3 3 3 5 3 5 5 5
5 4 6 8 9 9 8 9 5 4 6 4 2 2 3 3 3 4 4 4 4 4 4 4 4 3 3 3 3 3 2 0 0 0 1 1 1 1 1 2 3 4 4 4 4 4 5 4 5
2 5 7 9 9 10 7 8 6 3 3 3 1 1 2 3 3 3 4 4 3 3 3 3 4 4 3 3 2 2 1 1 1 0 0 1 1 2 2 2 3 4 4 4 4 4 5 4 5
4 7 7 7 7 7 4 7 4 2 3 3 2 1 1 2 3 3 4 4 3 3 3 4 4 3 3 2 2 1 1 2 1 0 1 2 2 2 1 3 3 4 4 4 4 5 5 5 5
6 8 7 8 8 8 7 6 2 2 2 2 1 0 0 1 2 2 3 4 4 3 3 3 3 3 3 3 2 1 1 1 0 1 2 2 3 3 2 3 4 4 4 5 5 5 5 5 5
6 6 7 9 11 10 6 5 2 1 1 1 1 1 1 1 0 1 2 3 3 3 3 3 3 3 3 3 2 1 1 1 1 1 3 3 3 2 2 3 4 4 4 5 5 5 5 5 6
6 7 6 7 7 9 8 7 4 2 3 2 2 1 1 1 1 1 1 2 3 3 3 3 3 3 2 2 2 1 1 0 1 2 3 3 3 2 2 3 4 4 4 4 5 5 4 5 5
6 5 7 8 8 8 9 5 4 4 4 5 4 3 2 2 1 0 1 2 3 3 3 3 3 3 2 2 2 1 0 0 1 2 3 3 3 3 3 3 4 4 4 4 5 5 5 5 5
5 6 7 8 8 9 10 6 3 4 5 5 5 4 2 2 1 0 1 1 2 2 2 3 3 3 2 2 2 1 1 1 1 2 2 3 3 3 3 4 4 4 4 5 5 6 6 6 6
Wind_Direction
194 198 213 225 234 224 217 151 75 85 95 76 118 147 91 44 9 60 117 151 150 150 150 156 159 158 156 151 147 145 146 149 151 154 158 160 162 163 164 165 166 166 164 161 159 155 154 153 154
183 191 217 234 243 217 177 135 129 51 68 119 143 150 132 87 57 100 136 147 152 151 153 159 157 161 159 155 150 147 147 150 152 154 157 160 162 165 167 168 170 171 171 171 170 168 170 170 171
187 215 236 232 238 240 151 108 79 95 138 176 154 128 66 68 100 127 138 150 154 153 155 151 159 162 161 158 156 154 153 153 155 156 158 161 164 167 170 173 174 177 179 182 182 180 182 184 188
196 210 228 237 221 222 324 104 94 153 158 170 164 122 95 56 91 127 142 154 156 156 155 152 162 163 163 161 161 160 159 159 160 161 163 165 168 172 176 179 180 184 188 192 192 193 194 195 200
226 229 217 217 216 193 210 215 229 206 175 156 177 121 99 78 99 130 147 155 157 156 154 153 163 164 165 166 166 166 166 166 167 168 170 172 174 178 183 185 189 192 195 200 202 206 210 211 214
215 228 222 209 194 184 191 208 222 218 183 163 173 154 98 109 128 140 149 156 156 156 155 151 162 167 169 170 170 170 171 172 173 175 178 180 182 186 191 195 200 203 206 212 217 220 221 221 223
238 228 225 213 187 171 153 187 228 213 191 171 177 153 124 134 136 144 150 156 157 160 158 159 167 172 174 175 175 175 174 174 176 180 184 189 194 199 203 208 212 216 219 224 227 229 232 232 231
257 236 213 210 201 160 128 158 250 252 176 94 201 185 141 146 145 147 151 155 158 162 164 165 174 175 179 180 180 180 179 179 183 188 194 199 204 208 214 220 215 227 232 234 236 237 239 239 238
245 234 207 197 210 138 132 169 132 145 157 155 166 53 107 140 148 150 153 157 161 166 169 173 176 179 186 181 174 180 182 185 194 200 204 213 217 214 212 223 207 228 238 241 240 240 241 244 235
233 229 168 20 323 40 137 210 181 187 178 173 151 122 132 147 156 162 166 167 170 173 178 180 184 183 188 183 177 188 191 188 205 209 208 216 224 234 243 186 207 231 237 239 239 245 245 245 243
228 251 42 15 340 291 193 220 231 222 217 195 167 149 151 157 166 172 173 175 177 174 176 181 185 191 194 189 188 194 198 197 209 215 217 222 231 235 246 241 220 230 237 243 236 239 247 250 254
212 273 290 312 328 275 260 229 229 246 281 89 140 152 158 166 173 176 176 176 177 180 182 183 185 189 199 205 201 200 207 209 214 210 222 221 231 241 246 251 255 249 249 253 256 255 255 261 259
209 208 239 290 297 281 239 234 254 286 284 150 148 158 167 175 177 176 173 176 178 183 183 183 192 194 200 208 220 214 220 222 220 226 222 231 235 244 250 259 266 266 265 263 268 269 271 268 264
193 211 238 244 193 187 214 228 219 289 157 163 166 171 176 179 179 174 176 180 180 182 183 184 190 195 202 210 219 224 226 230 238 233 225 234 246 256 262 259 262 265 270 279 274 271 274 272 272
196 209 202 180 205 193 240 238 215 241 175 182 180 175 172 180 180 180 177 180 179 176 177 183 190 193 204 217 227 227 232 235 240 232 229 236 243 248 255 261 256 259 257 260 266 267 267 266 267
210 225 217 158 197 211 250 259 110 112 190 199 191 180 173 176 183 180 173 177 179 174 174 184 191 190 194 210 230 234 235 225 224 227 228 239 243 246 254 260 262 268 268 267 264 268 269 268 273
215 235 238 191 189 237 251 276 257 204 216 210 198 190 180 177 183 182 174 178 180 175 174 177 180 191 193 203 212 221 213 225 230 234 234 237 242 244 251 261 276 267 270 269 272 270 275 273 277
250 263 255 256 220 245 260 271 277 245 233 222 204 200 192 189 193 181 174 175 171 164 165 173 173 177 195 199 195 202 212 222 230 229 241 245 244 245 253 253 260 269 268 270 271 272 268 274 280
284 273 273 273 268 267 271 271 272 253 233 222 204 206 207 202 186 165 168 172 164 159 163 166 173 173 194 207 214 211 212 224 230 229 232 252 254 242 241 261 251 267 271 276 276 276 272 273 288
260 262 267 270 246 273 277 271 258 238 239 231 224 221 217 214 188 171 176 175 174 173 177 172 174 177 196 200 211 225 234 252 242 245 209 266 262 248 234 263 261 266 269 267 276 276 281 283 278
263 268 280 285 280 249 263 265 236 215 218 217 225 225 223 219 207 185 181 182 184 184 187 178 170 169 181 189 193 182 189 220 231 247 256 307 274 263 278 264 278 283 277 277 276 279 272 280 274
279 293 282 271 270 275 272 283 252 219 222 227 227 224 222 215 207 189 184 184 192 193 183 169 162 164 168 179 185 191 216 229 261 272 70 254 221 239 243 259 262 268 273 277 274 280 278 274 278
313 312 279 272 273 275 263 275 275 226 247 249 226 220 216 211 206 189 179 175 177 179 172 164 162 170 176 178 179 206 229 208 96 37 68 271 229 233 239 260 269 267 270 275 282 284 279 273 277
287 274 263 251 257 264 275 281 279 271 294 299 267 246 231 222 211 194 166 154 158 161 162 164 171 177 178 179 181 201 188 145 112 75 328 269 262 259 271 272 274 270 275 275 274 274 269 275 276
274 285 281 267 261 274 282 275 286 1 349 321 294 283 249 227 217 200 180 165 156 161 167 173 172 170 170 177 179 182 179 176 171 260 283 289 288 280 284 287 279 281 282 278 276 273 278 273 271
283 283 294 295 295 300 279 268 314 36 7 345 345 96 163 242 230 200 183 174 171 166 171 172 166 163 160 159 153 146 164 186 98 317 301 288 293 300 301 285 283 285 283 283 280 273 269 267 267
284 285 311 291 285 282 277 271 253 171 291 352 24 60 51 20 239 195 176 174 172 171 169 168 158 155 156 146 141 142 148 2 0 313 281 288 297 296 295 295 294 292 287 287 285 280 278 273 270
297 302 288 280 290 291 286 281 298 302 309 294 282 307 340 8 30 179 179 176 176 179 170 163 158 158 161 154 157 156 148 64 328 312 302 300 302 309 296 294 296 299 299 293 288 285 286 283 279
293 277 287 288 285 290 294 305 11 346 316 303 291 293 299 312 311 286 195 185 186 183 171 170 170 166 154 150 156 172 186 237 306 304 300 302 304 302 293 295 300 306 305 300 296 293 289 284 289
286 295 299 294 290 283 287 298 17 352 332 319 315 307 302 289 285 291 216 189 198 196 189 178 179 176 168 164 161 156 255 289 302 307 301 302 300 300 300 298 300 306 307 303 299 295 294 289 288
Height
1516 1517 1519 1521 1514 1504 1500 1497 1497 1499 1499 1504 1505 1505 1505 1507 1510 1517 1519 1518 1521 1524 1525 1527 1530 1532 1535 1537 1539 1541 1542 1544 1545 1546 1547 1548 1549 1550 1551 1552 1552 1553 1553 1554 1554 1554 1555 1555 1555
1517 1518 1521 1518 1506 1504 1501 1497 1499 1500 1504 1506 1507 1508 1508 1510 1515 1517 1517 1519 1522 1525 1526 1528 1531 1533 1536 1538 1540 1541 1543 1544 1546 1547 1548 1549 1550 1550 1551 1552 1552 1553 1553 1554 1554 1554 1554 1554 1555
1517 1519 1519 1508 1502 1500 1499 1498 1500 1503 1506 1506 1507 1509 1510 1514 1516 1517 1518 1519 1523 1526 1528 1529 1531 1534 1536 1538 1540 1542 1543 1545 1546 1547 1548 1549 1550 1550 1551 1552 1552 1553 1553 1553 1553 1554 1554 1554 1554
1519 1520 1516 1506 1502 1499 1499 1500 1503 1504 1505 1507 1507 1509 1513 1516 1517 1518 1518 1521 1525 1528 1530 1530 1532 1535 1537 1538 1540 1542 1544 1545 1546 1547 1548 1549 1550 1550 1551 1551 1552 1552 1552 1553 1553 1553 1553 1553 1554
1518 1514 1506 1503 1500 1499 1501 1503 1504 1503 1504 1507 1508 1509 1514 1517 1517 1518 1520 1523 1527 1529 1531 1531 1533 1535 1537 1539 1541 1542 1543 1545 1546 1547 1548 1548 1549 1550 1550 1551 1551 1551 1552 1552 1552 1552 1552 1553 1553
1516 1508 1503 1502 1500 1500 1501 1504 1504 1503 1505 1508 1509 1510 1515 1517 1518 1519 1522 1525 1528 1530 1532 1532 1533 1536 1537 1539 1541 1542 1543 1545 1546 1547 1547 1548 1549 1549 1550 1550 1550 1551 1551 1551 1551 1551 1551 1551 1551
1512 1503 1499 1498 1499 1500 1502 1505 1504 1503 1505 1508 1510 1511 1515 1518 1519 1520 1523 1526 1528 1531 1532 1533 1534 1536 1537 1539 1540 1542 1543 1544 1545 1546 1547 1548 1548 1549 1549 1549 1549 1549 1550 1550 1550 1550 1550 1550 1550
1511 1503 1499 1498 1499 1500 1503 1505 1506 1506 1507 1510 1511 1511 1514 1518 1518 1520 1523 1526 1529 1531 1532 1533 1535 1537 1538 1539 1540 1541 1543 1544 1545 1545 1546 1547 1547 1548 1548 1548 1548 1548 1548 1548 1548 1548 1548 1548 1548
1512 1504 1499 1498 1499 1500 1503 1505 1507 1509 1510 1511 1512 1513 1515 1516 1518 1521 1523 1526 1528 1530 1532 1533 1535 1537 1539 1540 1540 1541 1542 1542 1543 1544 1545 1545 1546 1547 1547 1547 1546 1546 1546 1546 1546 1546 1546 1546 1546
1508 1501 1500 1500 1500 1501 1504 1505 1507 1508 1508 1510 1512 1514 1515 1516 1518 1521 1523 1525 1527 1529 1531 1533 1535 1536 1538 1539 1539 1540 1541 1541 1542 1543 1543 1544 1545 1545 1546 1545 1544 1544 1544 1544 1544 1544 1544 1544 1545
1506 1502 1502 1503 1504 1505 1505 1506 1507 1506 1506 1508 1511 1513 1515 1516 1519 1521 1523 1525 1527 1528 1530 1532 1533 1535 1536 1537 1538 1539 1540 1540 1541 1541 1541 1542 1542 1543 1543 1543 1542 1542 1542 1542 1542 1541 1542 1542 1542
1507 1506 1506 1505 1507 1506 1506 1506 1507 1507 1508 1510 1512 1513 1514 1516 1518 1520 1522 1524 1526 1527 1529 1530 1531 1533 1534 1535 1536 1537 1538 1538 1539 1538 1539 1539 1539 1539 1540 1539 1539 1539 1539 1538 1539 1539 1539 1538 1538
1506 1506 1507 1507 1507 1507 1507 1507 1507 1508 1510 1511 1512 1513 1514 1516 1518 1520 1522 1524 1524 1526 1527 1528 1529 1530 1531 1533 1534 1535 1535 1536 1536 1536 1536 1536 1537 1537 1537 1536 1536 1536 1536 1536 1535 1535 1535 1534 1535
1505 1506 1506 1506 1506 1507 1506 1506 1507 1508 1510 1511 1512 1513 1514 1515 1517 1519 1520 1522 1523 1524 1525 1526 1527 1528 1529 1530 1531 1532 1533 1533 1534 1534 1533 1533 1534 1534 1533 1533 1532 1532 1532 1532 1532 1531 1531 1530 1530
1507 1505 1503 1504 1504 1505 1505 1504 1506 1508 1509 1510 1511 1512 1513 1515 1516 1517 1519 1521 1522 1523 1524 1525 1526 1526 1527 1528 1529 1530 1530 1531 1531 1531 1531 1531 1531 1531 1530 1530 1529 1529 1529 1528 1528 1527 1527 1527 1526
1502 1500 1500 1501 1503 1504 1505 1504 1505 1508 1508 1509 1510 1511 1512 1514 1515 1517 1518 1519 1521 1521 1522 1523 1524 1525 1525 1526 1526 1527 1528 1528 1528 1528 1528 1527 1527 1527 1527 1527 1526 1526 1526 1525 1524 1524 1523 1523 1522
1498 1500 1500 1500 1501 1501 1501 1502 1504 1507 1507 1508 1509 1510 1511 1513 1514 1516 1516 1517 1519 1520 1521 1521 1522 1523 1523 1524 1524 1525 1525 1525 1525 1525 1524 1524 1524 1524 1524 1523 1523 1522 1522 1522 1521 1521 1520 1519 1518
1501 1499 1500 1500 1499 1500 1500 1501 1502 1505 1506 1507 1508 1509 1510 1511 1513 1514 1515 1516 1517 1518 1519 1520 1520 1521 1522 1522 1522 1522 1522 1522 1522 1522 1522 1522 1522 1521 1521 1520 1520 1520 1519 1518 1518 1517 1516 1515 1515
1499 1500 1501 1499 1498 1500 1500 1501 1500 1503 1504 1505 1506 1508 1509 1510 1511 1513 1513 1514 1515 1516 1517 1517 1518 1519 1519 1520 1520 1520 1520 1520 1520 1519 1519 1519 1519 1518 1518 1518 1517 1516 1516 1515 1515 1514 1514 1513 1511
1500 1501 1500 1499 1499 1500 1500 1499 1498 1501 1502 1504 1505 1506 1508 1509 1510 1512 1512 1512 1513 1514 1515 1516 1517 1517 1517 1518 1518 1518 1518 1518 1517 1517 1516 1516 1516 1516 1516 1515 1514 1513 1513 1512 1512 1511 1510 1510 1509
1499 1500 1500 1501 1498 1497 1499 1499 1495 1498 1501 1503 1504 1505 1506 1508 1509 1510 1511 1511 1512 1512 1513 1514 1514 1515 1516 1516 1516 1516 1516 1515 1515 1515 1514 1514 1514 1513 1513 1512 1512 1511 1511 1510 1509 1508 1507 1507 1506
1500 1496 1498 1500 1500 1497 1499 1503 1495 1494 1497 1499 1502 1503 1504 1506 1507 1508 1509 1509 1510 1511 1512 1512 1512 1513 1514 1514 1514 1515 1514 1514 1513 1513 1513 1512 1512 1511 1510 1510 1509 1508 1508 1507 1506 1505 1504 1503 1503
1499 1497 1498 1497 1497 1498 1494 1499 1493 1491 1494 1496 1499 1501 1503 1504 1505 1506 1507 1508 1509 1509 1510 1510 1510 1511 1511 1512 1512 1513 1513 1513 1512 1511 1511 1511 1510 1509 1508 1508 1507 1506 1506 1505 1503 1502 1501 1501 1500
1499 1498 1496 1494 1492 1503 1495 1499 1496 1489 1493 1495 1498 1500 1502 1503 1504 1505 1506 1506 1507 1508 1508 1508 1509 1509 1510 1510 1510 1510 1510 1510 1510 1509 1509 1509 1509 1508 1507 1506 1505 1504 1503 1502 1501 1499 1499 1498 1497
1499 1502 1505 1504 1502 1499 1491 1496 1494 1491 1493 1496 1498 1500 1501 1502 1503 1503 1504 1505 1505 1506 1506 1507 1507 1507 1508 1509 1509 1509 1508 1508 1508 1508 1508 1507 1507 1506 1505 1504 1503 1502 1501 1500 1498 1497 1496 1495 1494
1499 1500 1510 1516 1509 1499 1493 1493 1490 1492 1495 1497 1499 1500 1501 1502 1502 1502 1503 1504 1504 1504 1505 1505 1506 1506 1506 1507 1507 1507 1506 1507 1507 1506 1506 1506 1505 1505 1503 1502 1501 1500 1498 1497 1496 1495 1494 1492 1491
1499 1496 1496 1503 1500 1502 1493 1488 1488 1493 1495 1497 1498 1499 1500 1501 1501 1502 1502 1503 1503 1503 1503 1504 1504 1505 1505 1505 1506 1506 1506 1505 1505 1504 1504 1504 1503 1502 1501 1500 1499 1497 1496 1495 1494 1493 1491 1490 1489
1499 1498 1500 1502 1511 1510 1498 1491 1490 1490 1493 1495 1497 1498 1500 1501 1501 1501 1501 1502 1502 1502 1503 1503 1503 1504 1504 1504 1504 1505 1504 1504 1504 1503 1503 1502 1501 1500 1498 1498 1497 1495 1494 1493 1491 1490 1489 1487 1486
1501 1501 1499 1497 1497 1507 1508 1497 1486 1489 1491 1493 1495 1497 1499 1500 1500 1500 1501 1501 1501 1501 1502 1502 1502 1503 1503 1503 1503 1503 1503 1503 1502 1501 1501 1500 1499 1498 1497 1496 1495 1493 1492 1491 1489 1488 1487 1485 1484
1500 1500 1501 1508 1504 1498 1500 1498 1489 1491 1493 1494 1495 1497 1498 1500 1500 1500 1500 1500 1500 1500 1501 1501 1501 1501 1502 1502 1502 1502 1502 1501 1501 1500 1499 1498 1498 1496 1495 1494 1493 1491 1490 1489 1487 1486 1485 1483 1481